| time (UTC) | temp F | wind direction | speed MPH | gust MPH | rain 1hr in | rain 24hr in | rain mn in | humidity % | barometer mb |
| 20260506210519 | 54 | 176 | 6.0 | 8.0 | 0.00 | 0.00 | 0.00 | 89 | 1020.6 |
| 20260506205520 | 54 | 212 | 5.0 | 8.0 | 0.00 | 0.00 | 0.00 | 91 | 1020.6 |
| 20260506204540 | 54 | 188 | 5.0 | 7.0 | 0.00 | 0.00 | 0.00 | 92 | 1020.6 |
| 20260506203520 | 53 | 152 | 7.0 | 9.0 | 0.00 | 0.00 | 0.00 | 92 | 1020.3 |
| 20260506202517 | 53 | 152 | 8.0 | 11.0 | 0.00 | 0.00 | 0.00 | 92 | 1020.3 |
| 20260506201517 | 53 | 148 | 7.0 | 10.0 | 0.00 | 0.00 | 0.00 | 93 | 1020.3 |
| 20260506200521 | 53 | 144 | 9.0 | 11.0 | 0.00 | 0.00 | 0.00 | 93 | 1020.2 |
| 20260506195520 | 53 | 148 | 8.0 | 11.0 | 0.00 | 0.00 | 0.00 | 94 | 1020.3 |
| 20260506194521 | 53 | 148 | 7.0 | 9.0 | 0.00 | 0.00 | 0.00 | 94 | 1020.3 |
| 20260506193517 | 53 | 145 | 9.0 | 12.0 | 0.00 | 0.00 | 0.00 | 95 | 1020.1 |
| 20260506192518 | 53 | 144 | 12.0 | 14.0 | 0.00 | 0.00 | 0.00 | 95 | 1019.9 |
| 20260506191518 | 53 | 145 | 10.0 | 14.0 | 0.00 | 0.00 | 0.00 | 96 | 1020.0 |
| 20260506190541 | 53 | 144 | 7.0 | 10.0 | 0.00 | 0.00 | 0.00 | 96 | 1020.1 |
| 20260506185521 | 53 | 147 | 8.0 | 11.0 | 0.00 | 0.00 | 0.00 | 96 | 1020.0 |
| 20260506184521 | 52 | 146 | 8.0 | 10.0 | 0.00 | 0.00 | 0.00 | 96 | 1019.9 |
| 20260506183539 | 52 | 144 | 8.0 | 11.0 | 0.00 | 0.00 | 0.00 | 96 | 1019.8 |
| 20260506182519 | 52 | 142 | 12.0 | 16.0 | 0.00 | 0.00 | 0.00 | 96 | 1019.8 |
| 20260506181519 | 52 | 146 | 12.0 | 15.0 | 0.00 | 0.00 | 0.00 | 96 | 1019.6 |
| 20260506180519 | 52 | 145 | 13.0 | 16.0 | 0.00 | 0.00 | 0.00 | 96 | 1019.6 |
| 20260506175519 | 52 | 147 | 13.0 | 16.0 | 0.00 | 0.00 | 0.00 | 96 | 1019.6 |
| 20260506174520 | 52 | 146 | 13.0 | 17.0 | 0.00 | 0.00 | 0.00 | 96 | 1019.4 |
| 20260506173520 | 52 | 145 | 12.0 | 15.0 | 0.00 | 0.00 | 0.00 | 96 | 1019.6 |
| 20260506172517 | 52 | 144 | 13.0 | 17.0 | 0.00 | 0.00 | 0.00 | 96 | 1019.2 |
| 20260506171520 | 52 | 144 | 14.0 | 17.0 | 0.00 | 0.00 | 0.00 | 97 | 1019.1 |
| 20260506170520 | 52 | 144 | 13.0 | 16.0 | 0.00 | 0.00 | 0.00 | 97 | 1019.2 |
| 20260506165540 | 52 | 143 | 12.0 | 14.0 | 0.00 | 0.00 | 0.00 | 97 | 1019.4 |
| 20260506164517 | 52 | 142 | 13.0 | 16.0 | 0.00 | 0.00 | 0.00 | 97 | 1019.2 |
| 20260506163517 | 52 | 142 | 12.0 | 15.0 | 0.00 | 0.00 | 0.00 | 97 | 1019.2 |
| 20260506162517 | 52 | 143 | 10.0 | 14.0 | 0.00 | 0.00 | 0.00 | 97 | 1019.4 |
| 20260506161521 | 52 | 145 | 10.0 | 13.0 | 0.00 | 0.00 | 0.00 | 97 | 1019.3 |
| 20260506160521 | 52 | 143 | 13.0 | 15.0 | 0.00 | 0.00 | 0.00 | 97 | 1019.1 |
| 20260506155518 | 52 | 142 | 14.0 | 16.0 | 0.00 | 0.00 | 0.00 | 96 | 1019.0 |
| 20260506154518 | 52 | 143 | 14.0 | 16.0 | 0.00 | 0.00 | 0.00 | 96 | 1018.8 |
| 20260506153518 | 52 | 143 | 16.0 | 20.0 | 0.00 | 0.00 | 0.00 | 96 | 1018.6 |
| 20260506152538 | 52 | 142 | 17.0 | 21.0 | 0.00 | 0.00 | 0.00 | 96 | 1018.6 |
| 20260506151518 | 52 | 142 | 15.0 | 19.0 | 0.00 | 0.00 | 0.00 | 96 | 1018.7 |
| 20260506150518 | 52 | 142 | 14.0 | 18.0 | 0.00 | 0.00 | 0.00 | 97 | 1018.8 |
| 20260506145519 | 52 | 141 | 13.0 | 15.0 | 0.00 | 0.00 | 0.00 | 97 | 1018.8 |
| 20260506144519 | 52 | 142 | 9.0 | 11.0 | 0.00 | 0.00 | 0.00 | 96 | 1019.1 |
| 20260506143519 | 52 | 141 | 13.0 | 16.0 | 0.00 | 0.00 | 0.00 | 96 | 1018.6 |
| 20260506142519 | 52 | 141 | 13.0 | 16.0 | 0.00 | 0.00 | 0.00 | 96 | 1018.4 |
| 20260506141519 | 53 | 140 | 12.0 | 15.0 | 0.00 | 0.00 | 0.00 | 96 | 1018.5 |
| 20260506140519 | 53 | 140 | 11.0 | 13.0 | 0.00 | 0.00 | 0.00 | 96 | 1018.5 |
| 20260506135519 | 52 | 139 | 7.0 | 9.0 | 0.00 | 0.00 | 0.00 | 96 | 1018.5 |
| 20260506134519 | 52 | 141 | 7.0 | 8.0 | 0.00 | 0.00 | 0.00 | 96 | 1018.4 |
| 20260506133519 | 52 | 152 | 2.0 | 4.0 | 0.00 | 0.00 | 0.00 | 97 | 1018.4 |
| 20260506132519 | 52 | 162 | 1.0 | 3.0 | 0.00 | 0.00 | 0.00 | 96 | 1018.4 |
| 20260506131519 | 52 | 294 | 1.0 | 3.0 | 0.00 | 0.00 | 0.00 | 96 | 1018.5 |
| 20260506130520 | 52 | 167 | 1.0 | 3.0 | 0.00 | 0.00 | 0.00 | 96 | 1018.3 |
| 20260506125520 | 52 | 271 | 0.0 | 2.0 | 0.00 | 0.00 | 0.00 | 96 | 1018.3 |
| 20260506124520 | 52 | 175 | 0.0 | 2.0 | 0.00 | 0.00 | 0.00 | 96 | 1018.1 |
| 20260506123517 | 52 | 155 | 1.0 | 3.0 | 0.00 | 0.00 | 0.00 | 96 | 1018.1 |
| 20260506122520 | 51 | 145 | 3.0 | 7.0 | 0.00 | 0.00 | 0.00 | 96 | 1017.9 |
| 20260506121520 | 51 | 265 | 0.0 | 1.0 | 0.00 | 0.00 | 0.00 | 96 | 1018.0 |
| 20260506120520 | 51 | 165 | 0.0 | 2.0 | 0.00 | 0.00 | 0.00 | 96 | 1018.0 |
| 20260506115520 | 51 | 186 | 0.0 | 1.0 | 0.00 | 0.00 | 0.00 | 96 | 1017.9 |
| 20260506114537 | 51 | 232 | 0.0 | 2.0 | 0.00 | 0.00 | 0.00 | 96 | 1017.9 |
| 20260506113517 | 51 | 235 | 1.0 | 3.0 | 0.00 | 0.00 | 0.00 | 96 | 1017.8 |
| 20260506112520 | 51 | 142 | 3.0 | 9.0 | 0.00 | 0.00 | 0.00 | 96 | 1017.7 |
| 20260506111540 | 51 | 189 | 0.0 | 1.0 | 0.00 | 0.00 | 0.00 | 96 | 1017.6 |
| 20260506110518 | 51 | 178 | 2.0 | 4.0 | 0.00 | 0.00 | 0.00 | 96 | 1017.5 |
| 20260506105538 | 50 | 189 | 1.0 | 2.0 | 0.00 | 0.00 | 0.00 | 96 | 1017.4 |
| 20260506104517 | 50 | 298 | 1.0 | 2.0 | 0.00 | 0.00 | 0.00 | 96 | 1017.2 |
| 20260506103558 | 50 | 313 | 1.0 | 2.0 | 0.00 | 0.00 | 0.00 | 96 | 1017.1 |
| 20260506102542 | 49 | 331 | 2.0 | 3.0 | 0.00 | 0.00 | 0.00 | 96 | 1017.0 |
| 20260506101519 | 49 | 320 | 2.0 | 4.0 | 0.00 | 0.00 | 0.00 | 96 | 1016.8 |
| 20260506100519 | 49 | 323 | 1.0 | 2.0 | 0.00 | 0.00 | 0.00 | 96 | 1016.6 |
| 20260506095518 | 49 | 296 | 0.0 | 1.0 | 0.00 | 0.00 | 0.00 | 95 | 1016.5 |
| 20260506094519 | 49 | 291 | 0.0 | 2.0 | 0.00 | 0.00 | 0.00 | 95 | 1016.5 |
| 20260506093519 | 49 | 322 | 2.0 | 5.0 | 0.00 | 0.00 | 0.00 | 95 | 1016.6 |
| 20260506092539 | 49 | 297 | 1.0 | 5.0 | 0.00 | 0.00 | 0.00 | 95 | 1016.5 |
| 20260506091518 | 49 | 312 | 1.0 | 2.0 | 0.00 | 0.00 | 0.00 | 95 | 1016.5 |
| 20260506090539 | 49 | 314 | 1.0 | 2.0 | 0.00 | 0.00 | 0.00 | 95 | 1016.5 |
| 20260506085519 | 49 | 315 | 1.0 | 3.0 | 0.00 | 0.00 | 0.00 | 94 | 1016.5 |
| 20260506084519 | 50 | 302 | 1.0 | 2.0 | 0.00 | 0.00 | 0.00 | 94 | 1016.3 |
| 20260506083539 | 50 | 298 | 0.0 | 2.0 | 0.00 | 0.00 | 0.00 | 94 | 1016.2 |
| 20260506082519 | 50 | 282 | 0.0 | 1.0 | 0.00 | 0.00 | 0.00 | 94 | 1016.2 |
| 20260506081519 | 50 | 253 | 0.0 | 1.0 | 0.00 | 0.00 | 0.00 | 94 | 1016.3 |
| 20260506080520 | 50 | 250 | 0.0 | 2.0 | 0.00 | 0.00 | 0.00 | 93 | 1016.1 |
| 20260506073517 | 50 | 238 | 0.0 | 1.0 | 0.00 | 0.00 | 0.00 | 93 | 1015.7 |
| 20260506072540 | 51 | 318 | 1.0 | 2.0 | 0.00 | 0.00 | 0.00 | 92 | 1015.7 |
| 20260506071520 | 51 | 283 | 0.0 | 1.0 | 0.00 | 0.00 | 0.00 | 92 | 1015.6 |
| 20260506070540 | 51 | 257 | 0.0 | 1.0 | 0.00 | 0.00 | 0.00 | 92 | 1015.6 |
| 20260506061518 | 53 | 359 | 2.0 | 5.0 | 0.00 | 0.00 | 0.00 | 90 | 1015.6 |
| 20260506060518 | 53 | 4 | 1.0 | 3.0 | 0.00 | 0.00 | 0.00 | 90 | 1015.5 |
| 20260506050519 | 53 | 326 | 1.0 | 3.0 | 0.00 | 0.00 | 0.00 | 90 | 1015.0 |
| 20260506044519 | 53 | 315 | 1.0 | 2.0 | 0.00 | 0.00 | 0.00 | 89 | 1014.7 |
| 20260506043519 | 54 | 314 | 1.0 | 3.0 | 0.00 | 0.00 | 0.00 | 88 | 1014.7 |
| 20260506042519 | 54 | 309 | 1.0 | 3.0 | 0.00 | 0.00 | 0.00 | 87 | 1014.5 |
| 20260506041519 | 55 | 320 | 0.0 | 2.0 | 0.00 | 0.00 | 0.00 | 87 | 1014.4 |
| 20260506040519 | 56 | 346 | 0.0 | 2.0 | 0.00 | 0.00 | 0.00 | 86 | 1014.4 |
| 20260506035519 | 56 | 334 | 0.0 | 2.0 | 0.00 | 0.00 | 0.00 | 85 | 1014.3 |
| 20260506034520 | 57 | 324 | 1.0 | 2.0 | 0.00 | 0.00 | 0.00 | 85 | 1014.4 |
| 20260506033519 | 57 | 320 | 1.0 | 2.0 | 0.00 | 0.00 | 0.00 | 85 | 1014.4 |
| 20260506032520 | 57 | 342 | 2.0 | 4.0 | 0.00 | 0.00 | 0.00 | 85 | 1014.4 |
| 20260506031520 | 57 | 329 | 1.0 | 3.0 | 0.00 | 0.00 | 0.00 | 85 | 1014.4 |
| 20260506030517 | 58 | 327 | 1.0 | 3.0 | 0.00 | 0.00 | 0.00 | 85 | 1014.5 |
| 20260506025520 | 58 | 318 | 1.0 | 3.0 | 0.00 | 0.00 | 0.00 | 85 | 1014.3 |
| 20260506024540 | 59 | 357 | 1.0 | 2.0 | 0.00 | 0.00 | 0.00 | 85 | 1014.3 |
| 20260506023540 | 59 | 301 | 1.0 | 2.0 | 0.00 | 0.00 | 0.00 | 85 | 1014.3 |
| 20260506022537 | 59 | 78 | 1.0 | 3.0 | 0.00 | 0.00 | 0.00 | 85 | 1014.3 |
| 20260506021518 | 59 | 124 | 1.0 | 2.0 | 0.00 | 0.00 | 0.00 | 84 | 1014.3 |
| 20260506020517 | 59 | 119 | 2.0 | 3.0 | 0.00 | 0.00 | 0.00 | 83 | 1014.4 |
| 20260506015521 | 59 | 111 | 3.0 | 4.0 | 0.00 | 0.00 | 0.00 | 83 | 1014.6 |
| 20260506014518 | 60 | 146 | 3.0 | 5.0 | 0.00 | 0.00 | 0.00 | 83 | 1014.7 |
| 20260506013518 | 59 | 156 | 5.0 | 7.0 | 0.00 | 0.00 | 0.00 | 84 | 1014.7 |
| 20260506012518 | 59 | 160 | 5.0 | 7.0 | 0.00 | 0.00 | 0.00 | 83 | 1014.7 |
| 20260506011518 | 60 | 157 | 6.0 | 8.0 | 0.00 | 0.00 | 0.00 | 82 | 1014.8 |
| 20260506010558 | 60 | 158 | 7.0 | 10.0 | 0.00 | 0.00 | 0.00 | 82 | 1014.8 |
| 20260506005518 | 60 | 171 | 7.0 | 12.0 | 0.00 | 0.00 | 0.00 | 82 | 1014.9 |
| 20260506004518 | 59 | 177 | 6.0 | 9.0 | 0.00 | 0.00 | 0.00 | 83 | 1015.0 |
| 20260506003519 | 59 | 178 | 5.0 | 8.0 | 0.00 | 0.00 | 0.00 | 85 | 1015.0 |
| 20260506002519 | 58 | 170 | 5.0 | 7.0 | 0.00 | 0.00 | 0.00 | 86 | 1015.0 |
| 20260506001519 | 58 | 170 | 5.0 | 7.0 | 0.00 | 0.00 | 0.00 | 87 | 1015.0 |
| 20260506000519 | 58 | 168 | 6.0 | 8.0 | 0.00 | 0.00 | 0.00 | 88 | 1015.2 |
| 20260505235519 | 58 | 169 | 6.0 | 8.0 | 0.00 | 0.00 | 0.00 | 88 | 1015.3 |
| 20260505234519 | 57 | 166 | 6.0 | 8.0 | 0.00 | 0.00 | 0.00 | 89 | 1015.4 |
| 20260505233519 | 57 | 162 | 6.0 | 8.0 | 0.00 | 0.00 | 0.00 | 89 | 1015.6 |
| 20260505232520 | 57 | 172 | 5.0 | 8.0 | 0.00 | 0.00 | 0.00 | 89 | 1015.7 |
| 20260505231517 | 57 | 159 | 6.0 | 8.0 | 0.00 | 0.00 | 0.00 | 90 | 1015.7 |
| 20260505230520 | 57 | 166 | 5.0 | 8.0 | 0.00 | 0.00 | 0.00 | 90 | 1015.9 |
| 20260505225540 | 57 | 158 | 7.0 | 10.0 | 0.00 | 0.00 | 0.00 | 91 | 1015.9 |
| 20260505224520 | 57 | 158 | 7.0 | 10.0 | 0.00 | 0.00 | 0.00 | 90 | 1016.0 |
| 20260505223520 | 57 | 155 | 6.0 | 9.0 | 0.00 | 0.00 | 0.00 | 90 | 1016.0 |
| 20260505222537 | 57 | 152 | 6.0 | 9.0 | 0.00 | 0.00 | 0.00 | 90 | 1016.2 |
| 20260505221517 | 57 | 151 | 6.0 | 8.0 | 0.00 | 0.00 | 0.00 | 90 | 1016.3 |
| 20260505220520 | 57 | 152 | 5.0 | 7.0 | 0.00 | 0.00 | 0.00 | 90 | 1016.4 |
| 20260505215520 | 57 | 150 | 6.0 | 8.0 | 0.00 | 0.00 | 0.00 | 90 | 1016.6 |
| 20260505214517 | 57 | 152 | 6.0 | 10.0 | 0.00 | 0.00 | 0.00 | 90 | 1016.8 |
| 20260505213538 | 57 | 155 | 6.0 | 9.0 | 0.00 | 0.00 | 0.00 | 90 | 1016.7 |
| 20260505212518 | 57 | 146 | 7.0 | 10.0 | 0.00 | 0.00 | 0.00 | 91 | 1016.6 |
| 20260505211518 | 57 | 145 | 7.0 | 10.0 | 0.00 | 0.00 | 0.00 | 91 | 1016.6 |